Location: Home
(42.5358°N, 72.7383°W)
Time: 11:28:29
(UTC-05:00)

Vanguard 2 Rocket - Pass Details

Date: 12 December 2025
Orbit: 553 x 3287 km, 32.9° (Epoch: 17 January)

Event Time Altitude Azimuth Distance (km) Brightness Sun altitude
Rises 06:06:38 0° 203° (SSW) 7,070 11.4 -11.6°
Reaches altitude 10° 06:12:33 10° 192° (SSW) 6,192 11.3 -10.6°
Maximum altitude 06:27:16 27° 145° (SE) 4,771 11.3 -8.1°
Drops below altitude 10° 06:39:58 10° 96° (E) 5,369 12.2 -6.0°
Sets 06:44:30 0° 85° (E) 6,016 12.2 -5.2°
